Weather History for Starkville, MS

Change the Weather History Date:

Sunday, April 22, 2012

  Actual Average Record
Temperature  
Mean Temperature 55 °F -  
Max Temperature 69 °F 75 °F 75 °F (2014)
Min Temperature 41 °F 54 °F 41 °F (2012)
Degree Days  
Heating Degree Days 10    
Growing Degree Days 5 (Base 50)    
Moisture  
Dew Point 43 °F    
Average Humidity 69    
Maximum Humidity 100    
Minimum Humidity 33    
Precipitation  
Precipitation 0.00 in - - ()
Sea Level Pressure  
Sea Level Pressure 29.90 in    
Wind  
Wind Speed 3 mph (NW)    
Max Wind Speed 14 mph    
Max Gust Speed 24 mph    
Visibility 9 miles    
Events Rain    
Averages and records for this station are not official NWS values.
T = Trace of Precipitation, MM = Missing Value Source: NWS Daily Summary

Daily Weather History Graph

Daily Weather History Graph

Search for Another Location

Airport:

Trip Planner

Search our weather history database for the weather conditions in past years. The results will help you decide how hot, cold, wet, or windy it might be!

Date:

Astronomy

Apr. 22, 2012 Rise Set
Actual Time 6:16 AM CDT 7:31 PM CDT
Civil Twilight 5:50 AM CDT 7:57 PM CDT
Nautical Twilight 5:19 AM CDT 8:28 PM CDT
Astronomical Twilight 4:47 AM CDT 9:01 PM CDT
Moon 6:52 AM CDT (4/22) 9:02 PM CDT (4/22)
Length of Visible Light 14h 07m
Length of Day
13h 15m
New Moon, 2% of the Moon is Illuminated
Apr 22
New Moon
Apr 29
First Quarter
May 5
Full
May 12
Last Quarter
May 20
New

Hourly Weather History & Observations

Time (CDT) Temp. Dew Point Humidity Pressure Visibility Wind Dir Wind Speed Gust Speed Precip Events Conditions
12:15 AM 44.6 °F 42.8 °F 93% 29.93 in 10.0 mi Calm Calm - N/A   Clear
12:35 AM 44.6 °F 42.8 °F 93% 29.93 in 10.0 mi Calm Calm - N/A   Clear
12:55 AM 44.6 °F 42.8 °F 93% 29.93 in 10.0 mi Calm Calm - N/A   Clear
1:15 AM 44.6 °F 42.8 °F 93% 29.92 in 10.0 mi Calm Calm - N/A   Clear
1:35 AM 44.6 °F 42.8 °F 93% 29.92 in 7.0 mi Calm Calm - N/A   Clear
1:55 AM 42.8 °F 42.8 °F 100% 29.92 in 7.0 mi Calm Calm - N/A   Clear
2:15 AM 42.8 °F 42.8 °F 100% 29.91 in 7.0 mi Calm Calm - N/A   Clear
2:35 AM 42.8 °F 42.8 °F 100% 29.91 in 7.0 mi Calm Calm - N/A   Clear
2:55 AM 42.8 °F 42.8 °F 100% 29.90 in 7.0 mi Calm Calm - N/A   Clear
3:15 AM 42.8 °F 41.0 °F 93% 29.90 in 7.0 mi Calm Calm - N/A   Clear
3:35 AM 42.8 °F 42.8 °F 100% 29.90 in 5.0 mi Calm Calm - N/A   Clear
3:55 AM 42.8 °F 41.0 °F 93% 29.91 in 5.0 mi Calm Calm - N/A   Clear
4:15 AM 42.8 °F 41.0 °F 93% 29.91 in 5.0 mi Calm Calm - N/A   Clear
4:35 AM 42.8 °F 41.0 °F 93% 29.91 in 5.0 mi Calm Calm - N/A   Clear
4:55 AM 42.8 °F 41.0 °F 93% 29.91 in 5.0 mi Calm Calm - N/A   Clear
5:15 AM 41.0 °F 41.0 °F 100% 29.91 in 5.0 mi Calm Calm - N/A   Clear
5:55 AM 41.0 °F 41.0 °F 100% 29.91 in 5.0 mi Calm Calm - N/A   Clear
6:15 AM 41.0 °F 41.0 °F 100% 29.91 in 5.0 mi Calm Calm - N/A   Clear
6:35 AM 41.0 °F 41.0 °F 100% 29.91 in 4.0 mi Calm Calm - N/A   Clear
6:55 AM 41.0 °F 41.0 °F 100% 29.92 in 4.0 mi Calm Calm - N/A   Clear
7:15 AM 42.8 °F 41.0 °F 93% 29.92 in 4.0 mi Calm Calm - N/A   Clear
7:35 AM 42.8 °F 42.8 °F 100% 29.92 in 5.0 mi Calm Calm - N/A   Clear
7:55 AM 44.6 °F 42.8 °F 93% 29.91 in 7.0 mi Calm Calm - N/A   Clear
8:15 AM 46.4 °F 44.6 °F 93% 29.92 in 10.0 mi Calm Calm - N/A   Clear
8:35 AM 50.0 °F 44.6 °F 82% 29.92 in 10.0 mi Calm Calm - N/A   Clear
8:55 AM 51.8 °F 44.6 °F 76% 29.93 in 10.0 mi Calm Calm - N/A   Clear
9:15 AM 51.8 °F 44.6 °F 76% 29.93 in 10.0 mi NNW 5.8 mph - N/A   Clear
9:35 AM 53.6 °F 42.8 °F 67% 29.92 in 10.0 mi NW 6.9 mph - N/A   Clear
9:55 AM 55.4 °F 42.8 °F 63% 29.92 in 10.0 mi North 4.6 mph - N/A   Clear
10:15 AM 55.4 °F 42.8 °F 63% 29.92 in 10.0 mi NW 3.5 mph - N/A   Clear
10:35 AM 57.2 °F 42.8 °F 59% 29.92 in 10.0 mi NNW 3.5 mph - N/A   Clear
10:55 AM 59.0 °F 44.6 °F 59% 29.91 in 10.0 mi NW 5.8 mph - N/A   Clear
11:15 AM 60.8 °F 42.8 °F 52% 29.91 in 10.0 mi NW 5.8 mph - N/A   Clear
11:35 AM 60.8 °F 44.6 °F 55% 29.90 in 10.0 mi NW 5.8 mph - N/A   Clear
11:55 AM 62.6 °F 44.6 °F 52% 29.89 in 10.0 mi WNW 4.6 mph - N/A   Clear
12:35 PM 64.4 °F 44.6 °F 49% 29.87 in 10.0 mi NW 6.9 mph - N/A   Clear
12:55 PM 66.2 °F 44.6 °F 46% 29.86 in 10.0 mi West 5.8 mph - N/A   Clear
1:15 PM 68.0 °F 46.4 °F 46% 29.85 in 10.0 mi NW 6.9 mph - N/A   Scattered Clouds
1:35 PM 68.0 °F 46.4 °F 46% 29.84 in 10.0 mi NW 6.9 mph - N/A   Scattered Clouds
1:55 PM 68.0 °F 46.4 °F 46% 29.84 in 10.0 mi NNW 11.5 mph 17.3 mph N/A   Scattered Clouds
2:15 PM 68.0 °F 46.4 °F 46% 29.83 in 10.0 mi WNW 10.4 mph - N/A   Scattered Clouds
2:35 PM 68.0 °F 46.4 °F 46% 29.83 in 10.0 mi NW 9.2 mph - N/A   Scattered Clouds
2:55 PM 68.0 °F 46.4 °F 46% 29.82 in 10.0 mi NW 10.4 mph - N/A   Scattered Clouds
3:35 PM 68.0 °F 44.6 °F 43% 29.82 in 10.0 mi NW 8.1 mph 16.1 mph N/A   Mostly Cloudy
3:55 PM 69.8 °F 39.2 °F 33% 29.82 in 10.0 mi NW 12.7 mph 24.2 mph N/A   Scattered Clouds
4:15 PM 69.8 °F 39.2 °F 33% 29.82 in 10.0 mi WNW 13.8 mph 20.7 mph N/A   Clear
4:35 PM 69.8 °F 41.0 °F 35% 29.82 in 10.0 mi WNW 12.7 mph 20.7 mph N/A   Scattered Clouds
4:55 PM 66.2 °F 41.0 °F 40% 29.83 in 10.0 mi NNW 9.2 mph 16.1 mph N/A   Mostly Cloudy
5:15 PM 66.2 °F 42.8 °F 43% 29.83 in 10.0 mi NNW 8.1 mph - N/A   Scattered Clouds
5:35 PM 68.0 °F 42.8 °F 40% 29.83 in 10.0 mi NNW 10.4 mph 20.7 mph N/A   Mostly Cloudy
5:55 PM 68.0 °F 41.0 °F 37% 29.84 in 10.0 mi NW 10.4 mph 17.3 mph N/A   Mostly Cloudy
6:15 PM 66.2 °F 41.0 °F 40% 29.84 in 10.0 mi NW 5.8 mph - N/A   Scattered Clouds
6:35 PM 66.2 °F 41.0 °F 40% 29.85 in 10.0 mi NW 5.8 mph - N/A   Scattered Clouds
6:55 PM 64.4 °F 41.0 °F 42% 29.86 in 10.0 mi NW 9.2 mph 19.6 mph N/A   Scattered Clouds
7:15 PM 64.4 °F 41.0 °F 42% 29.87 in 10.0 mi NW 8.1 mph - N/A   Scattered Clouds
7:35 PM 62.6 °F 44.6 °F 52% 29.88 in 10.0 mi NNW 6.9 mph 20.7 mph N/A   Mostly Cloudy
7:55 PM 59.0 °F 46.4 °F 63% 29.90 in 10.0 mi NNW 5.8 mph - N/A Rain Light Rain
8:15 PM 59.0 °F 46.4 °F 63% 29.91 in 10.0 mi NW 3.5 mph - N/A   Overcast
8:35 PM 59.0 °F 44.6 °F 59% 29.93 in 10.0 mi NW 9.2 mph - N/A   Overcast
8:55 PM 59.0 °F 44.6 °F 59% 29.93 in 10.0 mi NNW 4.6 mph - N/A   Overcast
9:15 PM 57.2 °F 44.6 °F 63% 29.95 in 10.0 mi NNW 8.1 mph - N/A   Scattered Clouds
9:35 PM 55.4 °F 44.6 °F 67% 29.96 in 10.0 mi NNW 8.1 mph - N/A   Clear
9:55 PM 55.4 °F 44.6 °F 67% 29.97 in 10.0 mi NNW 10.4 mph - N/A   Clear
10:15 PM 53.6 °F 44.6 °F 72% 29.98 in 10.0 mi NNW 6.9 mph - N/A   Clear
10:35 PM 53.6 °F 44.6 °F 72% 29.98 in 10.0 mi NNW 5.8 mph - N/A   Clear
10:55 PM 53.6 °F 44.6 °F 72% 29.98 in 10.0 mi NW 5.8 mph - N/A   Clear
11:15 PM 53.6 °F 44.6 °F 72% 29.99 in 10.0 mi NW 4.6 mph - N/A   Clear
11:35 PM 51.8 °F 44.6 °F 76% 29.98 in 10.0 mi NW 5.8 mph - N/A   Scattered Clouds
11:55 PM 51.8 °F 44.6 °F 76% 29.99 in 10.0 mi NNW 4.6 mph - N/A   Scattered Clouds